• Join FlightAware (Why Join?)
  • Login
  • US Flag 
03:06AM EDT


 

Airport Tracker/Info


-or-


 

Live Flight TrackerFlight Track Log ✈ CPZ5718 ✈ 02-Jul-2013 ✈ KALB - KMSP

Flight Track Log - Related Links

Times and Time Zones

All times are in EDT time to prevent confusion due to time zone crossing. See the CPZ5718 flight status page for this flight to view local times or setup timezone preferences in your user account.

Time Position Orientation Groundspeed Altitude Reporting Facility
EDT Latitude Longitude Course Direction KTS MPH feet Rate Location/Type
06:43AM 42.7736 -73.8092 281° West 142 163 1,400  Level Boston Center
06:44AM 42.8356 -73.8558 331° Northwest 255 293 3,000 2,340 Climbing Boston Center
06:45AM 42.8179 -74.2559 285° West  Level FlightAware Approximate
06:45AM 42.9242 -73.9286 329° Northwest 281 323 7,400  Level Boston Center
06:46AM 42.8462 -74.4101 283° West  Level FlightAware Approximate
06:46AM 42.9819 -73.9728 331° Northwest 268 308 10,100  Level Boston Center
06:47AM 42.8839 -74.5544 281° West  Level FlightAware Approximate
06:47AM 43.0644 -74.0344 331° Northwest 288 331 11,700  Level Boston Center
06:48AM 42.9054 -74.7108 281° West  Level FlightAware Approximate
06:48AM 43.1153 -74.1183 310° West 311 358 13,800  Level Boston Center
06:49AM 43.1489 -74.2444 290° West 311 358 16,200 2,100 Climbing Boston Center
06:50AM 43.1822 -74.3706 290° West 340 391 18,000 1,740 Climbing Boston Center
06:51AM 43.2117 -74.4828 290° West 345 397 19,700 1,800 Climbing Boston Center
06:52AM 43.2447 -74.6064 290° West 350 403 21,700 1,680 Climbing Boston Center
06:53AM 43.2775 -74.7358 289° West 350 403 23,100 1,440 Climbing Boston Center
06:54AM 43.3125 -74.8714 290° West 356 410 24,600 1,320 Climbing Boston Center
06:56AM 43.3853 -75.1514 290° West 384 442 27,200 1,260 Climbing Boston Center
06:57AM 43.4272 -75.3133 290° West 391 450 28,400 1,080 Climbing Boston Center
06:58AM 43.4611 -75.4553 288° West 404 465 29,400 780 Climbing Boston Center
06:59AM 43.4967 -75.6003 289° West 404 465 30,000 300 Climbing Boston Center
07:00AM 43.5342 -75.7481 289° West 409 471 30,000  Level Boston Center
07:01AM 43.5694 -75.8933 289° West 409 471 30,000  Level Boston Center
07:02AM 43.6067 -76.0419 289° West 409 471 30,000  Level Boston Center
07:03AM 43.6436 -76.1906 289° West 409 471 30,000  Level Boston Center
07:04AM 43.6783 -76.3392 288° West 409 471 30,000  Level Boston Center
07:05AM 43.7075 -76.4558 289° West 409 471 30,000  Level Boston Center
07:06AM 43.7469 -76.6339 287° West 409 471 30,000  Level Boston Center
07:07AM 43.7667 -76.7500 283° West 410 472 30,000  Level Toronto Center
07:08AM 43.8000 -76.8833 289° West 400 460 30,000  Level Toronto Center
07:09AM 43.8333 -77.0500 286° West 410 472 30,000  Level Toronto Center
07:10AM 43.8667 -77.2000 287° West 410 472 30,000  Level Toronto Center
07:11AM 43.9000 -77.3333 289° West 410 472 30,000  Level Toronto Center
07:12AM 43.9500 -77.5000 293° West 410 472 30,000  Level Toronto Center
07:13AM 43.9833 -77.6333 289° West 410 472 30,000  Level Toronto Center
07:14AM 44.0167 -77.8000 286° West 410 472 30,000  Level Toronto Center
07:15AM 44.0333 -77.9333 280° West 410 472 30,000  Level Toronto Center
07:16AM 44.0667 -78.1000 286° West 410 472 30,000  Level Toronto Center
07:17AM 44.1000 -78.2667 286° West 410 472 30,000  Level Toronto Center
07:18AM 44.1333 -78.4000 289° West 420 483 30,000  Level Toronto Center
07:19AM 44.1833 -78.5667 293° West 410 472 30,000  Level Toronto Center
07:20AM 44.2167 -78.7000 289° West 410 472 30,000  Level Toronto Center
07:21AM 44.2500 -78.8667 286° West 410 472 30,000  Level Toronto Center
07:22AM 44.2833 -79.0333 286° West 410 472 30,000  Level Toronto Center
07:23AM 44.3000 -79.1833 279° West 410 472 30,000  Level Toronto Center
07:24AM 44.3167 -79.3333 279° West 400 460 30,000  Level Toronto Center
07:25AM 44.3333 -79.4667 280° West 400 460 30,000  Level Toronto Center
07:26AM 44.3333 -79.6333 270° West 400 460 30,000  Level Toronto Center
07:27AM 44.3500 -79.8000 278° West 400 460 30,000  Level Toronto Center
07:28AM 44.3500 -79.9333 270° West 400 460 30,000  Level Toronto Center
07:29AM 44.3667 -80.1000 278° West 390 449 30,000  Level Toronto Center
07:30AM 44.3833 -80.2667 278° West 400 460 30,000  Level Toronto Center
07:31AM 44.3833 -80.4000 270° West 390 449 30,000  Level Toronto Center
07:32AM 44.4000 -80.5667 278° West 390 449 30,000  Level Toronto Center
07:33AM 44.4000 -80.7000 270° West 390 449 30,000  Level Toronto Center
07:34AM 44.4000 -80.8500 270° West 400 460 30,000  Level Toronto Center
07:35AM 44.4167 -81.0167 278° West 400 460 30,000  Level Toronto Center
07:36AM 44.4167 -81.1667 270° West 400 460 30,000  Level Toronto Center
07:37AM 44.4333 -81.3333 278° West 410 472 30,000  Level Toronto Center
07:38AM 44.4333 -81.4833 270° West 410 472 30,000  Level Toronto Center
07:39AM 44.4500 -81.6333 279° West 400 460 30,000  Level Toronto Center
07:40AM 44.4500 -81.8000 270° West 400 460 30,000  Level Toronto Center
07:41AM 44.4500 -81.9500 270° West 400 460 30,000  Level Toronto Center
07:42AM 44.4500 -82.1167 270° West 400 460 30,000  Level Toronto Center
07:43AM 44.4667 -82.2667 279° West 410 472 30,000  Level Toronto Center
07:44AM 44.4900 -82.4483 280° West 412 474 30,000  Level Minneapolis Center
07:45AM 44.4953 -82.6058 273° West 410 472 30,000  Level Minneapolis Center
07:46AM 44.5011 -82.7653 273° West 411 473 30,000  Level Minneapolis Center
07:47AM 44.5053 -82.9242 272° West 410 472 30,000  Level Minneapolis Center
07:48AM 44.5133 -83.0819 274° West 409 471 30,000  Level Minneapolis Center
07:49AM 44.5244 -83.2414 276° West 410 472 30,000  Level Minneapolis Center
07:50AM 44.5389 -83.4028 277° West 414 476 30,000  Level Minneapolis Center
07:51AM 44.5531 -83.5656 277° West 418 481 30,000  Level Minneapolis Center
07:52AM 44.5675 -83.7608 276° West 420 483 30,000  Level Minneapolis Center
07:53AM 44.5800 -83.9239 276° West 421 484 30,000  Level Minneapolis Center
07:54AM 44.5922 -84.0878 276° West 422 486 30,000  Level Minneapolis Center
07:55AM 44.6033 -84.2525 275° West 424 488 30,000  Level Minneapolis Center
07:56AM 44.6156 -84.4178 276° West 426 490 30,000  Level Minneapolis Center
07:58AM 44.6261 -84.5869 275° West 430 495 30,000  Level Minneapolis Center
07:59AM 44.6375 -84.7550 275° West 434 499 30,000  Level Minneapolis Center
08:00AM 44.6489 -84.9244 275° West 437 503 30,000  Level Minneapolis Center
08:01AM 44.6594 -85.0922 275° West 434 499 30,000  Level Minneapolis Center
08:02AM 44.6728 -85.2933 275° West 432 497 30,000  Level Minneapolis Center
08:03AM 44.6831 -85.4608 275° West 432 497 30,000  Level Minneapolis Center
08:04AM 44.6936 -85.6278 275° West 430 495 30,000  Level Minneapolis Center
08:05AM 44.7031 -85.7897 275° West 433 498 30,000  Level Minneapolis Center
08:06AM 44.7133 -85.9500 275° West 422 486 30,000  Level Minneapolis Center
08:07AM 44.7225 -86.1111 275° West 418 481 30,000  Level Minneapolis Center
08:08AM 44.7300 -86.2708 274° West 414 476 30,000  Level Minneapolis Center
08:09AM 44.7417 -86.4603 275° West 409 471 30,000  Level Minneapolis Center
08:10AM 44.7494 -86.6200 274° West 411 473 30,000  Level Minneapolis Center
08:11AM 44.7592 -86.7811 275° West 409 471 30,000  Level Minneapolis Center
08:12AM 44.7647 -86.9272 273° West 410 472 30,000  Level Minneapolis Center
08:13AM 44.7731 -87.0856 274° West 407 468 30,000  Level Minneapolis Center
08:14AM 44.7814 -87.2769 274° West 408 470 30,000  Level Minneapolis Center
08:15AM 44.7886 -87.4364 274° West 409 471 30,000  Level Minneapolis Center
08:16AM 44.7944 -87.5650 274° West 411 473 30,000  Level Minneapolis Center
08:17AM 44.8022 -87.7553 273° West 408 470 30,000  Level Minneapolis Center
08:18AM 44.8083 -87.9139 273° West 407 468 30,000  Level Minneapolis Center
08:19AM 44.8144 -88.0750 273° West 412 474 30,000  Level Minneapolis Center
08:20AM 44.8208 -88.2331 273° West 407 468 30,000  Level Minneapolis Center
08:21AM 44.8275 -88.4033 273° West 413 475 30,000  Level Minneapolis Center
08:22AM 44.8344 -88.5889 273° West 408 470 30,000  Level Minneapolis Center
08:23AM 44.8394 -88.7494 273° West 410 472 30,000  Level Minneapolis Center
08:24AM 44.8447 -88.9089 273° West 408 470 30,000  Level Minneapolis Center
08:25AM 44.8503 -89.0692 273° West 410 472 30,000  Level Minneapolis Center
08:26AM 44.8539 -89.2292 272° West 410 472 30,000  Level Minneapolis Center
08:27AM 44.8589 -89.3883 273° West 407 468 30,000  Level Minneapolis Center
08:29AM 44.8647 -89.6036 272° West 412 474 30,000  Level Minneapolis Center
08:30AM 44.8692 -89.7644 272° West 412 474 30,000  Level Minneapolis Center
08:31AM 44.8731 -89.9278 272° West 412 474 30,000  Level Minneapolis Center
08:32AM 44.8781 -90.0911 273° West 414 476 30,000  Level Minneapolis Center
08:33AM 44.8917 -90.2539 277° West 417 480 30,000  Level Minneapolis Center
08:34AM 44.9058 -90.4183 277° West 420 483 30,000  Level Minneapolis Center
08:35AM 44.9203 -90.5808 277° West 419 482 30,000  Level Minneapolis Center
08:36AM 44.9392 -90.8111 277° West 421 484 30,000  Level Minneapolis Center
08:37AM 44.9475 -90.9325 276° West 421 484 30,000  Level Minneapolis Center
08:38AM 44.9636 -91.1294 277° West 423 487 30,000 -660 Level Minneapolis Center
08:39AM 44.9756 -91.2925 276° West 421 484 28,700 -2,100 Descending Minneapolis Center
08:40AM 44.9881 -91.4517 276° West 414 476 25,800 -3,120 Descending Minneapolis Center
08:41AM 45.0014 -91.6428 276° West 411 473 22,300 -3,180 Descending Minneapolis Center
08:42AM 45.0158 -91.8017 277° West 409 471 19,400 -2,880 Descending Minneapolis Center
08:43AM 45.0258 -91.9572 275° West 402 463 16,500 -2,760 Descending Minneapolis Center
08:44AM 45.0364 -92.1067 276° West 385 443 13,800 -2,580 Descending Minneapolis Center
08:45AM 45.0461 -92.2492 276° West 367 422 11,300 -1,380 Descending Minneapolis Center
08:46AM 45.0358 -92.3747 263° West 321 369 11,000 -540 Descending Minneapolis Center
08:47AM 45.0028 -92.5047 250° West 297 342 10,300 -1,140 Descending Minneapolis Center
08:48AM 44.9483 -92.5956 230° Southwest 301 346 8,700 -1,620 Descending Minneapolis Center
08:49AM 44.8928 -92.6836 228° Southwest 300 345 7,000 -1,020 Descending Minneapolis Center
08:50AM 44.8378 -92.7678 227° Southwest 294 338 6,500 -780 Descending Minneapolis Center
08:52AM 44.8186 -92.8714 255° West 238 274 5,300 -1,200 Descending Minneapolis Center
08:53AM 44.8233 -92.9578 274° West 224 258 4,100 -1,080 Descending Minneapolis Center
08:54AM 44.8269 -93.0303 274° West 192 221 3,100 -1,020 Descending Minneapolis Center